Fallon, NV

8:56 PM PDT on September 26, 2016 (GMT -0700)
Fallon Naval Air Station

Weather History for KNFL - August, 2013

Change the Weather History Date:

Friday, August 30, 2013

  Actual Average Record
Temperature  
Mean Temperature 74 °F -  
Max Temperature 95 °F 86 °F 99 °F (1998)
Min Temperature 55 °F 48 °F 34 °F (1932)
Cooling Degree Days 9    
Growing Degree Days 24 (Base 50)    
Moisture  
Dew Point 36 °F    
Average Humidity 29    
Maximum Humidity 58    
Minimum Humidity 10    
Precipitation  
Precipitation 0.00 in - - ()
Sea Level Pressure  
Sea Level Pressure 30.03 in    
Wind  
Wind Speed 4 mph (NNW)    
Max Wind Speed 12 mph    
Max Gust Speed -    
Visibility 6 miles    
Events      
Averages and records for this station are not official NWS values.
T = Trace of Precipitation, MM = Missing Value Source: NWS Daily Summary

Daily Weather History Graph

Daily Weather History Graph

Search for Another Location

Airport or City:

Trip Planner

Search our weather history database for the weather conditions in past years. The results will help you decide how hot, cold, wet, or windy it might be!

Date:

Astronomy

Aug. 30, 2013 Rise Set
Actual Time 6:21 AM PDT 7:28 PM PDT
Civil Twilight 5:54 AM PDT 7:55 PM PDT
Nautical Twilight 5:21 AM PDT 8:28 PM PDT
Astronomical Twilight 4:46 AM PDT 9:02 PM PDT
Moon 1:05 AM PDT (8/30) 3:46 PM PDT (8/30)
Length of Visible Light 14h 01m
Length of Day
13h 06m
Waning Crescent, 28% of the Moon is Illuminated
Aug 30
Waning Crescent
Sep 5
New
Sep 12
First Quarter
Sep 19
Full
Sep 26
Last Quarter

Hourly Weather History & Observations

Time (PDT) Temp. Dew Point Humidity Pressure Visibility Wind Dir Wind Speed Gust Speed Precip Events Conditions
12:56 AM 66.0 °F 35.1 °F 32% 30.06 in 7.0 mi West 3.5 mph - N/A   Overcast
1:56 AM 64.9 °F 35.1 °F 33% 30.05 in 8.0 mi West 4.6 mph - N/A   Overcast
2:56 AM 57.9 °F 41.0 °F 53% 30.05 in 6.0 mi SSE 4.6 mph - N/A   Haze
3:56 AM 57.9 °F 41.0 °F 53% 30.05 in 6.0 mi South 3.5 mph - N/A   Haze
4:56 AM 59.0 °F 39.9 °F 49% 30.05 in 6.0 mi SW 3.5 mph - N/A   Haze
5:56 AM 57.9 °F 39.9 °F 51% 30.06 in 6.0 mi Calm Calm - N/A   Haze
6:16 AM 55.4 °F 41.0 °F 58% 30.17 in 6.0 mi Calm Calm - N/A   Smoke
6:56 AM 55.4 °F 37.4 °F 51% 30.07 in 5.0 mi South 4.6 mph - N/A   Smoke
7:56 AM 62.6 °F 35.6 °F 37% 30.09 in 6.0 mi Calm Calm - N/A   Smoke
8:56 AM 69.8 °F 37.4 °F 31% 30.09 in 6.0 mi Calm Calm - N/A   Smoke
9:56 AM 75.0 °F 36.0 °F 24% 30.09 in 6.0 mi NW 3.5 mph - N/A   Smoke
10:56 AM 79.0 °F 35.1 °F 20% 30.09 in 8.0 mi Calm Calm - N/A   Overcast
11:56 AM 86.0 °F 35.1 °F 16% 30.07 in 8.0 mi Variable 3.5 mph - N/A   Overcast
12:56 PM 89.6 °F 33.8 °F 14% 30.05 in 4.0 mi ENE 6.9 mph - N/A   Smoke
1:56 PM 91.4 °F 33.8 °F 13% 30.02 in 3.0 mi North 4.6 mph - N/A   Smoke
2:56 PM 93.2 °F 30.2 °F 11% 29.99 in 3.0 mi WSW 9.2 mph - N/A   Smoke
3:56 PM 93.2 °F 33.8 °F 12% 29.97 in 3.0 mi NNW 6.9 mph - N/A   Smoke
4:56 PM 93.2 °F 28.4 °F 10% 29.96 in 3.0 mi Calm Calm - N/A   Smoke
5:56 PM 93.2 °F 30.2 °F 11% 29.94 in 5.0 mi NNE 4.6 mph - N/A   Smoke
6:56 PM 87.8 °F 33.8 °F 15% 29.94 in 5.0 mi NE 4.6 mph - N/A   Smoke
7:56 PM 82.4 °F 33.8 °F 17% 29.95 in 5.0 mi East 3.5 mph - N/A   Smoke
8:56 PM 78.8 °F 32.0 °F 18% 29.96 in 5.0 mi Calm Calm - N/A   Smoke
9:56 PM 75.2 °F 37.4 °F 25% 29.97 in 5.0 mi NW 11.5 mph - N/A   Smoke
10:56 PM 69.1 °F 36.0 °F 30% 29.99 in 7.0 mi Calm Calm - N/A   Smoke
11:56 PM 63.0 °F 37.0 °F 38% 30.00 in 6.0 mi ESE 8.1 mph - N/A   Smoke